Regional Weather Roundup
Issued by NWS

Home | Current Version | Previous Version | Graphics & Text | Print | Product List | Glossary On
Versions: 1 2 3 4 5 6 7 8 9 10 11 12 13 14 15 16 17 18 19 20 21 22 23 24 25 26 27 28 29 30 31 32 33 34 35 36 37 38 39 40 41 42 43 44 45 46 47 48 49 50
000
ASUS45 KPSR 270310
RWRAZ

ARIZONA HOURLY REGIONAL WEATHER ROUNDUP
NATIONAL WEATHER SERVICE PHOENIX AZ
800 PM MST SUN FEB 26 2017

NOTE: FAIR INDICATES FEW OR NO CLOUDS BELOW 12,000 FEET WITH NO
SIGNIFICANT WEATHER AND/OR OBSTRUCTIONS TO VISIBILITY.

AZZ001>003-036-270400-
NORTHWEST ARIZONA

CITY           SKY/WX    TMP DP  RH WIND       PRES   REMARKS
BULLHEAD CITY  CLOUDY    63  32  31 S13       29.83S
KINGMAN        FAIR      45  17  32 SW13      29.86R
$$

AZZ004>008-015-016-018-270400-
NORTH CENTRAL ARIZONA

CITY           SKY/WX    TMP DP  RH WIND       PRES   REMARKS
GRAND CANYON   FAIR      32  24  72 S7        29.86F WCI  26
WILLIAMS       CLOUDY    34  23  64 S8        29.88S WCI  27
PRESCOTT       FAIR      38  26  62 S6        29.90R WCI  33
FLAGSTAFF      MOCLDY    32  23  69 SW15      29.89S WCI  22
PAYSON         FAIR      39  25  56 S5        29.95S
PAGE           FAIR      47  17  30 SW6       29.79S
$$

AZZ009>014-017-270400-
NORTHEAST ARIZONA

CITY           SKY/WX    TMP DP  RH WIND       PRES   REMARKS
WINSLOW        FAIR      41  25  53 S12       29.90R
SAINT JOHNS    FAIR      40  23  50 SW10      29.92R WCI  33
WINDOW ROCK    FAIR      34  21  59 S6        29.90R WCI  29
SHOW LOW       FAIR      34  19  55 S10       29.94S WCI  26
$$

AZZ023-270400-
GREATER PHOENIX AREA

CITY           SKY/WX    TMP DP  RH WIND       PRES   REMARKS
PHOENIX        FAIR      62  34  35 W7        29.88R
BUCKEYE        FAIR      55  36  47 S7        29.89R
LUKE AFB       FAIR      61  34  36 S8        29.87R
DEER VALLEY    FAIR      57  34  41 CALM      29.88R
SCOTTSDALE     FAIR      58  32  37 CALM      29.90R
MESA-FALCON    PTCLDY   N/A N/A N/A W6        29.87R
MESA-GATEWAY   PTCLDY    55  32  41 SW3       29.90
CHANDLER       MOCLDY    66  30  26 SW12      29.89
$$

AZZ027-028-270400-
SOUTHWEST MARICOPA COUNTY AND PINAL COUNTY

CITY           SKY/WX    TMP DP  RH WIND       PRES   REMARKS
CASA GRANDE    NOT AVBL
$$

AZZ503-504-507>509-270400-
SOUTHEAST ARIZONA

CITY           SKY/WX    TMP DP  RH WIND       PRES   REMARKS
TUCSON         FAIR      59  30  33 W7        29.94S
DAVIS-MONTHAN  FAIR      58  30  34 W8        29.93R
RYAN FIELD       N/A     57  32  38 S6        29.95R
NOGALES        FAIR      51  23  33 S3        29.97S
SIERRA VISTA   FAIR      49  20  30 W7        29.99S
DOUGLAS        FAIR      55  23  28 W15       29.97R
SAFFORD        FAIR      49  26  41 NW3       29.93R
$$

AZZ020-021-025-026-031-270400-
SOUTHWEST ARIZONA

CITY           SKY/WX    TMP DP  RH WIND       PRES   REMARKS
YUMA           FAIR      61  40  45 W7        29.90R
$$

CAZ031-033-041-043-047-048-061-270400-
SOUTHERN CALIFORNIA

CITY           SKY/WX    TMP DP  RH WIND       PRES   REMARKS
DOWNTOWN L.A.  CLOUDY    55  44  66 CALM      29.96R
L.A. AIRPORT   MOCLDY    53  44  71 S7        29.96R
SAN DIEGO      MOCLDY    57  45  64 SW7       30.00S
BURBANK        CLOUDY    51  41  68 S10       29.94S
ONTARIO        MOCLDY    50  44  80 W7        29.96R
RIVERSIDE      CLOUDY    49  46  90 W5        29.96R
PALM SPRINGS   FAIR      57  46  66 S5        29.87S
EL CENTRO NAS  LGT RAIN  60  35  39 W23       29.91S
IMPERIAL         N/A    N/A N/A N/A MISG      29.89S
BLYTHE         FAIR      61  39  44 SW12      29.86S
NEEDLES        FAIR      61  34  36 SW7       29.84R
$$

NVZ020-UTZ003-270400-
SOUTHERN NEVADA-UTAH

CITY           SKY/WX    TMP DP  RH WIND       PRES   REMARKS
LAS VEGAS      FAIR      54  28  36 SW8       29.78R
SALT LAKE CITY MOCLDY    36  20  52 SE3       29.68F
$$

NMZ009-TXZ055-270400-
NEW MEXICO-WEST TEXAS

CITY           SKY/WX    TMP DP  RH WIND       PRES   REMARKS
ALBUQUERQUE    MOCLDY    41  23  48 SE5       29.92S
EL PASO        MOCLDY    61  13  15 W12       29.91R
$$


........................KEY........................
SKY/WX - SKY CONDITION/WEATHER
TMP    - TEMPERATURE IN FAHRENHEIT
DP     - DEW POINT IN FAHRENHEIT
RH     - RELATIVE HUMIDITY IN PERCENT
WIND   - DIRECTION AND SPEED IN MILES PER HOUR (MPH)
VRB    - VARIABLE WIND DIRECTION
PRES   - MEAN SEA LEVEL PRESSURE IN INCHES OF MERCURY
         F - FALLING PRESSURE   R - RISING PRESSURE
         S - STEADY PRESSURE
VSB    - VISIBILITY IN MILES
HX     - HEAT INDEX IN FAHRENHEIT
WCI    - WIND CHILL INDEX IN FAHRENHEIT
TC     - TEMPERATURE IN CELSIUS WHICH IS ALSO KNOWN AS
         TEMPERATURE IN CENTIGRADE
AFB    - AIR FORCE BASE
         LUKE AFB IS LUKE AIR FORCE BASE
         DAVIS-MONTHAN IS DAVIS-MONTHAN AIR FORCE BASE
NAS    - NAVAL AIR STATION
         EL CENTRO NAS IS EL CENTRO NAVAL AIR STATION
N/A    - NOT AVAILABLE




USA.gov is the U.S. government's official web portal to all federal, state and local government web resources and services.